Henderson, NV

1:45 PM PST on January 21, 2018 (GMT -0800)
Henderson

Weather History for KHND - August, 2013

Change the Weather History Date:

Thursday, August 22, 2013

  Actual Average (KLAS) Record (KLAS)
Temperature  
Mean Temperature 90 °F -  
Max Temperature 100 °F 100 °F 110 °F (1939)
Min Temperature 81 °F 73 °F 60 °F (1968)
Cooling Degree Days 26    
Growing Degree Days 40 (Base 50)    
Moisture  
Dew Point 48 °F    
Average Humidity 24    
Maximum Humidity 32    
Minimum Humidity 16    
Precipitation  
Precipitation 0.00 in - - ()
Sea Level Pressure  
Sea Level Pressure 29.85 in    
Wind  
Wind Speed 10 mph (SSW)    
Max Wind Speed 29 mph    
Max Gust Speed 34 mph    
Visibility 10 miles    
Events      
Averages and records for this station are not official NWS values.
T = Trace of Precipitation, MM = Missing Value Source: NWS Daily Summary

Daily Weather History Graph

Daily Weather History Graph

Search for Another Location

Airport or City:

Trip Planner

Search our weather history database for the weather conditions in past years. The results will help you decide how hot, cold, wet, or windy it might be!

Date:

Astronomy

Aug. 22, 2013 Rise Set
Actual Time 6:04 AM PDT 7:21 PM PDT
Civil Twilight 5:38 AM PDT 7:47 PM PDT
Nautical Twilight 5:06 AM PDT 8:19 PM PDT
Astronomical Twilight 4:32 AM PDT 8:52 PM PDT
Moon 8:14 PM PDT (8/22) 7:52 AM PDT (8/22)
Length of Visible Light 14h 09m
Length of Day
13h 16m
Waning Gibbous, 96% of the Moon is Illuminated
Aug 22
Waning Gibbous
Aug 28
Last Quarter
Sep 5
New
Sep 12
First Quarter
Sep 19
Full

Hourly Weather History & Observations

Time (PDT) Temp. Dew Point Humidity Pressure Visibility Wind Dir Wind Speed Gust Speed Precip Events Conditions
12:56 AM 88.9 °F 50.0 °F 26% 29.85 in 10.0 mi South 6.9 mph - N/A   Clear
1:56 AM 88.0 °F 50.9 °F 28% 29.84 in 10.0 mi WSW 5.8 mph - N/A   Clear
2:56 AM 84.9 °F 52.0 °F 32% 29.85 in 10.0 mi SSE 6.9 mph - N/A   Clear
3:56 AM 84.9 °F 48.9 °F 29% 29.85 in 10.0 mi South 9.2 mph - N/A   Clear
4:56 AM 86.0 °F 46.9 °F 26% 29.86 in 10.0 mi South 11.5 mph - N/A   Clear
5:56 AM 81.9 °F 47.8 °F 30% 29.87 in 10.0 mi SSW 9.2 mph - N/A   Clear
6:56 AM 81.9 °F 47.8 °F 30% 29.88 in 10.0 mi SW 10.4 mph - N/A   Clear
7:56 AM 86.0 °F 47.8 °F 27% 29.90 in 10.0 mi SSW 8.1 mph - N/A   Clear
8:56 AM 90.0 °F 46.9 °F 23% 29.90 in 10.0 mi SW 9.2 mph - N/A   Clear
9:56 AM 92.8 °F 45.0 °F 19% 29.90 in 10.0 mi Calm Calm - N/A   Clear
10:56 AM 95.9 °F 45.9 °F 18% 29.89 in 10.0 mi WSW 5.8 mph - N/A   Clear
11:56 AM 100.9 °F 46.9 °F 16% 29.87 in 10.0 mi NE 8.1 mph - N/A   Clear
12:56 PM 99.9 °F 45.9 °F 16% 29.85 in 10.0 mi Variable 6.9 mph - N/A   Clear
1:56 PM 99.9 °F 45.9 °F 16% 29.83 in 10.0 mi East 8.1 mph - 0.00 in   Clear
2:56 PM 92.8 °F 52.9 °F 26% 29.82 in 10.0 mi SSE 19.6 mph 25.3 mph N/A   Clear
3:56 PM 92.8 °F 48.9 °F 22% 29.80 in 10.0 mi SSE 19.6 mph 24.2 mph N/A   Clear
4:56 PM 92.8 °F 47.8 °F 21% 29.79 in 10.0 mi SSE 13.8 mph - N/A   Clear
5:56 PM 90.9 °F 48.9 °F 24% 29.79 in 10.0 mi SW 11.5 mph 16.1 mph 0.00 in   Clear
6:56 PM 91.9 °F 46.9 °F 21% 29.79 in 10.0 mi South 17.3 mph - N/A   Clear
7:56 PM 88.9 °F 48.9 °F 25% 29.80 in 10.0 mi South 13.8 mph - N/A   Clear
8:56 PM 88.9 °F 47.8 °F 24% 29.82 in 10.0 mi South 11.5 mph - N/A   Clear
9:56 PM 88.0 °F 52.9 °F 30% 29.82 in 10.0 mi SSW 16.1 mph - N/A   Clear
10:56 PM 88.0 °F 46.9 °F 24% 29.83 in 10.0 mi SSW 16.1 mph - N/A   Clear
11:13 PM 89.6 °F 46.4 °F 22% 29.92 in 10.0 mi WSW 15.0 mph - N/A   Clear
11:39 PM 86.0 °F 48.2 °F 27% 29.93 in 10.0 mi South 20.7 mph 25.3 mph 0.00 in   Clear
11:56 PM 86.0 °F 48.9 °F 28% 29.84 in 10.0 mi SSW 28.8 mph 34.5 mph 0.00 in   Clear